Time,TemperatureF,DewpointF,PressureIn,WindDirection,WindDirectionDegrees,WindSpeedMPH,WindSpeedGustMPH,Humidity,HourlyPrecipIn,Conditions,Clouds,dailyrainin,SolarRadiationWatts/m^2,SoftwareType,DateUTC
2013-01-03 00:03:00,22.0,12.0,-100.00,West,268,5.0,10.0,65,0.00,,,0.00,0.000000,,2013-01-03 05:03:00,
2013-01-03 00:10:00,22.0,12.0,-100.00,West,260,5.0,12.0,65,0.00,,,0.00,0.000000,,2013-01-03 05:10:00,
2013-01-03 00:33:00,22.0,12.0,-100.00,West,260,5.0,12.0,65,0.00,,,0.00,0.000000,,2013-01-03 05:33:00,
2013-01-03 00:42:00,22.0,12.0,-100.00,West,260,5.0,12.0,65,0.00,,,0.00,0.000000,,2013-01-03 05:42:00,
2013-01-03 00:53:00,22.0,12.0,-100.00,West,260,5.0,12.0,65,0.00,,,0.00,0.000000,,2013-01-03 05:53:00,
2013-01-03 01:03:00,22.0,12.0,-100.00,West,260,5.0,12.0,65,0.00,,,0.00,0.000000,,2013-01-03 06:03:00,
2013-01-03 01:10:00,22.0,13.0,-100.00,WNW,282,4.0,8.0,67,0.00,,,0.00,0.000000,,2013-01-03 06:10:00,
2013-01-03 01:33:00,22.0,13.0,-100.00,WNW,282,4.0,8.0,67,0.00,,,0.00,0.000000,,2013-01-03 06:33:00,
2013-01-03 01:43:00,22.0,13.0,-100.00,WNW,282,4.0,8.0,67,0.00,,,0.00,0.000000,,2013-01-03 06:43:00,
2013-01-03 01:53:00,22.0,13.0,-100.00,WNW,282,4.0,8.0,67,0.00,,,0.00,0.000000,,2013-01-03 06:53:00,
2013-01-03 02:02:00,22.0,13.0,-100.00,WNW,282,4.0,8.0,67,0.00,,,0.00,0.000000,,2013-01-03 07:02:00,
2013-01-03 02:10:00,21.0,11.0,-100.00,West,268,5.0,9.0,66,0.00,,,0.00,0.000000,,2013-01-03 07:10:00,
2013-01-03 02:33:00,21.0,11.0,-100.00,West,268,5.0,9.0,66,0.00,,,0.00,0.000000,,2013-01-03 07:33:00,
2013-01-03 02:43:00,21.0,11.0,-100.00,West,268,5.0,9.0,66,0.00,,,0.00,0.000000,,2013-01-03 07:43:00,
2013-01-03 02:53:00,21.0,11.0,-100.00,West,268,5.0,9.0,66,0.00,,,0.00,0.000000,,2013-01-03 07:53:00,
2013-01-03 03:02:00,21.0,11.0,-100.00,West,268,5.0,9.0,66,0.00,,,0.00,0.000000,,2013-01-03 08:02:00,
2013-01-03 03:10:00,21.0,12.0,-100.00,WNW,289,4.0,9.0,67,0.00,,,0.00,0.000000,,2013-01-03 08:10:00,
2013-01-03 03:33:00,21.0,12.0,-100.00,WNW,289,4.0,9.0,67,0.00,,,0.00,0.000000,,2013-01-03 08:33:00,
2013-01-03 03:43:00,21.0,12.0,-100.00,WNW,289,4.0,9.0,67,0.00,,,0.00,0.000000,,2013-01-03 08:43:00,
2013-01-03 03:53:00,21.0,12.0,-100.00,WNW,289,4.0,9.0,67,0.00,,,0.00,0.000000,,2013-01-03 08:53:00,
2013-01-03 04:03:00,21.0,12.0,-100.00,WNW,289,4.0,9.0,67,0.00,,,0.00,0.000000,,2013-01-03 09:03:00,
2013-01-03 04:10:00,20.0,11.0,-100.00,West,279,4.0,6.0,69,0.00,,,0.00,0.000000,,2013-01-03 09:10:00,
2013-01-03 04:34:00,20.0,11.0,-100.00,West,279,4.0,6.0,69,0.00,,,0.00,0.000000,,2013-01-03 09:34:00,
2013-01-03 04:43:00,20.0,11.0,-100.00,West,279,4.0,6.0,69,0.00,,,0.00,0.000000,,2013-01-03 09:43:00,
2013-01-03 04:53:00,20.0,11.0,-100.00,West,279,4.0,6.0,69,0.00,,,0.00,0.000000,,2013-01-03 09:53:00,
2013-01-03 05:02:00,20.0,11.0,-100.00,West,279,4.0,6.0,69,0.00,,,0.00,0.000000,,2013-01-03 10:02:00,
2013-01-03 05:10:00,20.0,11.0,-100.00,West,260,4.0,7.0,69,0.00,,,0.00,0.000000,,2013-01-03 10:10:00,
2013-01-03 05:33:00,20.0,11.0,-100.00,West,260,4.0,7.0,69,0.00,,,0.00,0.000000,,2013-01-03 10:33:00,
2013-01-03 05:43:00,20.0,11.0,-100.00,West,260,4.0,7.0,69,0.00,,,0.00,0.000000,,2013-01-03 10:43:00,
2013-01-03 05:53:00,20.0,11.0,-100.00,West,260,4.0,7.0,69,0.00,,,0.00,0.000000,,2013-01-03 10:53:00,
2013-01-03 06:03:00,20.0,11.0,-100.00,West,260,4.0,7.0,69,0.00,,,0.00,0.000000,,2013-01-03 11:03:00,
2013-01-03 06:10:00,19.0,12.0,-100.00,West,265,3.0,6.0,73,0.00,,,0.00,0.000000,,2013-01-03 11:10:00,
2013-01-03 06:33:00,19.0,12.0,-100.00,West,265,3.0,6.0,73,0.00,,,0.00,0.000000,,2013-01-03 11:33:00,
2013-01-03 06:43:00,19.0,12.0,-100.00,West,265,3.0,6.0,73,0.00,,,0.00,0.000000,,2013-01-03 11:43:00,
2013-01-03 06:53:00,19.0,12.0,-100.00,West,265,3.0,6.0,73,0.00,,,0.00,0.000000,,2013-01-03 11:53:00,
2013-01-03 07:03:00,19.0,12.0,-100.00,West,265,3.0,6.0,73,0.00,,,0.00,0.000000,,2013-01-03 12:03:00,
2013-01-03 07:10:00,19.0,13.0,-100.00,West,275,5.0,7.0,76,0.00,,,0.00,0.000000,,2013-01-03 12:10:00,
2013-01-03 07:43:00,19.0,13.0,-100.00,West,275,5.0,7.0,76,0.00,,,0.00,0.000000,,2013-01-03 12:43:00,
2013-01-03 07:53:00,19.0,13.0,-100.00,West,275,5.0,7.0,76,0.00,,,0.00,0.000000,,2013-01-03 12:53:00,
2013-01-03 08:03:00,19.0,13.0,-100.00,West,275,5.0,7.0,76,0.00,,,0.00,0.000000,,2013-01-03 13:03:00,
2013-01-03 08:10:00,19.0,12.0,-100.00,WNW,288,3.0,7.0,73,0.00,,,0.00,19.000000,,2013-01-03 13:10:00,
2013-01-03 08:33:00,19.0,12.0,-100.00,WNW,288,3.0,7.0,73,0.00,,,0.00,19.000000,,2013-01-03 13:33:00,
2013-01-03 08:43:00,19.0,12.0,-100.00,WNW,288,3.0,7.0,73,0.00,,,0.00,19.000000,,2013-01-03 13:43:00,
2013-01-03 08:53:00,19.0,12.0,-100.00,WNW,288,3.0,7.0,73,0.00,,,0.00,19.000000,,2013-01-03 13:53:00,
2013-01-03 09:03:00,19.0,12.0,-100.00,WNW,288,3.0,7.0,73,0.00,,,0.00,19.000000,,2013-01-03 14:03:00,
2013-01-03 09:10:00,21.0,13.0,-100.00,West,261,4.0,7.0,71,0.00,,,0.00,84.000000,,2013-01-03 14:10:00,
2013-01-03 09:33:00,21.0,13.0,-100.00,West,261,4.0,7.0,71,0.00,,,0.00,84.000000,,2013-01-03 14:33:00,
2013-01-03 09:43:00,21.0,13.0,-100.00,West,261,4.0,7.0,71,0.00,,,0.00,84.000000,,2013-01-03 14:43:00,
2013-01-03 09:53:00,21.0,13.0,-100.00,West,261,4.0,7.0,71,0.00,,,0.00,84.000000,,2013-01-03 14:53:00,
2013-01-03 10:03:00,21.0,13.0,-100.00,West,261,4.0,7.0,71,0.00,,,0.00,84.000000,,2013-01-03 15:03:00,
2013-01-03 10:10:00,24.0,12.0,-100.00,West,263,5.0,9.0,60,0.00,,,0.00,274.000000,,2013-01-03 15:10:00,
2013-01-03 10:34:00,24.0,12.0,-100.00,West,263,5.0,9.0,60,0.00,,,0.00,274.000000,,2013-01-03 15:34:00,
2013-01-03 10:43:00,24.0,12.0,-100.00,West,263,5.0,9.0,60,0.00,,,0.00,274.000000,,2013-01-03 15:43:00,
2013-01-03 10:53:00,24.0,12.0,-100.00,West,263,5.0,9.0,60,0.00,,,0.00,274.000000,,2013-01-03 15:53:00,
2013-01-03 11:03:00,24.0,12.0,-100.00,West,263,5.0,9.0,60,0.00,,,0.00,274.000000,,2013-01-03 16:03:00,
2013-01-03 11:10:00,27.0,13.0,-100.00,West,280,6.0,10.0,56,0.00,,,0.00,407.000000,,2013-01-03 16:10:00,
2013-01-03 11:34:00,27.0,13.0,-100.00,West,280,6.0,10.0,56,0.00,,,0.00,407.000000,,2013-01-03 16:34:00,
2013-01-03 11:43:00,27.0,13.0,-100.00,West,280,6.0,10.0,56,0.00,,,0.00,407.000000,,2013-01-03 16:43:00,
2013-01-03 11:53:00,27.0,13.0,-100.00,West,280,6.0,10.0,56,0.00,,,0.00,407.000000,,2013-01-03 16:53:00,
2013-01-03 12:03:00,27.0,13.0,-100.00,West,280,6.0,10.0,56,0.00,,,0.00,407.000000,,2013-01-03 17:03:00,
2013-01-03 12:10:00,28.0,13.0,-100.00,West,260,7.0,14.0,52,0.00,,,0.00,552.000000,,2013-01-03 17:10:00,
2013-01-03 12:33:00,28.0,13.0,-100.00,West,260,7.0,14.0,52,0.00,,,0.00,552.000000,,2013-01-03 17:33:00,
2013-01-03 12:43:00,28.0,13.0,-100.00,West,260,7.0,14.0,52,0.00,,,0.00,552.000000,,2013-01-03 17:43:00,
2013-01-03 12:53:00,28.0,13.0,-100.00,West,260,7.0,14.0,52,0.00,,,0.00,552.000000,,2013-01-03 17:53:00,
2013-01-03 13:03:00,28.0,13.0,-100.00,West,260,7.0,14.0,52,0.00,,,0.00,552.000000,,2013-01-03 18:03:00,
2013-01-03 13:10:00,29.0,13.0,-100.00,West,265,7.0,14.0,50,0.00,,,0.00,423.000000,,2013-01-03 18:10:00,
2013-01-03 13:33:00,29.0,13.0,-100.00,West,265,7.0,14.0,50,0.00,,,0.00,423.000000,,2013-01-03 18:33:00,
2013-01-03 13:43:00,29.0,13.0,-100.00,West,265,7.0,14.0,50,0.00,,,0.00,423.000000,,2013-01-03 18:43:00,
2013-01-03 13:53:00,29.0,13.0,-100.00,West,265,7.0,14.0,50,0.00,,,0.00,423.000000,,2013-01-03 18:53:00,
2013-01-03 14:03:00,29.0,13.0,-100.00,West,265,7.0,14.0,50,0.00,,,0.00,423.000000,,2013-01-03 19:03:00,
2013-01-03 14:10:00,29.0,12.0,-100.00,West,259,6.0,14.0,49,0.00,,,0.00,419.000000,,2013-01-03 19:10:00,
2013-01-03 14:57:00,29.0,12.0,-100.00,West,259,6.0,14.0,49,0.00,,,0.00,419.000000,,2013-01-03 19:57:00,
2013-01-03 15:03:00,29.0,12.0,-100.00,West,259,6.0,14.0,49,0.00,,,0.00,419.000000,,2013-01-03 20:03:00,
2013-01-03 15:10:00,29.0,13.0,-100.00,WSW,238,7.0,14.0,50,0.00,,,0.00,271.000000,,2013-01-03 20:10:00,
2013-01-03 15:33:00,29.0,13.0,-100.00,WSW,238,7.0,14.0,50,0.00,,,0.00,271.000000,,2013-01-03 20:33:00,
2013-01-03 15:43:00,29.0,13.0,-100.00,WSW,238,7.0,14.0,50,0.00,,,0.00,271.000000,,2013-01-03 20:43:00,
2013-01-03 15:53:00,29.0,13.0,-100.00,WSW,238,7.0,14.0,50,0.00,,,0.00,271.000000,,2013-01-03 20:53:00,
2013-01-03 16:03:00,29.0,13.0,-100.00,WSW,238,7.0,14.0,50,0.00,,,0.00,271.000000,,2013-01-03 21:03:00,
2013-01-03 16:10:00,28.0,12.0,-100.00,WSW,244,6.0,15.0,50,0.00,,,0.00,167.000000,,2013-01-03 21:10:00,
2013-01-03 16:38:00,28.0,12.0,-100.00,WSW,244,6.0,15.0,50,0.00,,,0.00,167.000000,,2013-01-03 21:38:00,
2013-01-03 16:51:00,28.0,12.0,-100.00,WSW,244,6.0,15.0,50,0.00,,,0.00,167.000000,,2013-01-03 21:51:00,
2013-01-03 17:03:00,28.0,12.0,-100.00,WSW,244,6.0,15.0,50,0.00,,,0.00,167.000000,,2013-01-03 22:03:00,
2013-01-03 17:10:00,26.0,12.0,-100.00,WSW,240,4.0,14.0,54,0.00,,,0.00,17.000000,,2013-01-03 22:10:00,
2013-01-03 17:33:00,26.0,12.0,-100.00,WSW,240,4.0,14.0,54,0.00,,,0.00,17.000000,,2013-01-03 22:33:00,
2013-01-03 17:43:00,26.0,12.0,-100.00,WSW,240,4.0,14.0,54,0.00,,,0.00,17.000000,,2013-01-03 22:43:00,
2013-01-03 17:53:00,26.0,12.0,-100.00,WSW,240,4.0,14.0,54,0.00,,,0.00,17.000000,,2013-01-03 22:53:00,
2013-01-03 18:03:00,26.0,12.0,-100.00,WSW,240,4.0,14.0,54,0.00,,,0.00,17.000000,,2013-01-03 23:03:00,
2013-01-03 18:10:00,25.0,12.0,-100.00,WSW,240,5.0,9.0,58,0.00,,,0.00,0.000000,,2013-01-03 23:10:00,
2013-01-03 18:43:00,25.0,12.0,-100.00,WSW,240,5.0,9.0,58,0.00,,,0.00,0.000000,,2013-01-03 23:43:00,
2013-01-03 18:53:00,25.0,12.0,-100.00,WSW,240,5.0,9.0,58,0.00,,,0.00,0.000000,,2013-01-03 23:53:00,
2013-01-03 19:03:00,25.0,12.0,-100.00,WSW,240,5.0,9.0,58,0.00,,,0.00,0.000000,,2013-01-04 00:03:00,
2013-01-03 19:10:00,26.0,14.0,-100.00,SW,236,5.0,12.0,59,0.00,,,0.00,0.000000,,2013-01-04 00:10:00,
2013-01-03 19:33:00,26.0,14.0,-100.00,SW,236,5.0,12.0,59,0.00,,,0.00,0.000000,,2013-01-04 00:33:00,
2013-01-03 19:42:00,26.0,14.0,-100.00,SW,236,5.0,12.0,59,0.00,,,0.00,0.000000,,2013-01-04 00:42:00,
2013-01-03 19:53:00,26.0,14.0,-100.00,SW,236,5.0,12.0,59,0.00,,,0.00,0.000000,,2013-01-04 00:53:00,
2013-01-03 20:02:00,26.0,14.0,-100.00,SW,236,5.0,12.0,59,0.00,,,0.00,0.000000,,2013-01-04 01:02:00,
2013-01-03 20:10:00,26.0,14.0,-100.00,WSW,256,7.0,14.0,59,0.00,,,0.00,0.000000,,2013-01-04 01:10:00,
2013-01-03 20:33:00,26.0,14.0,-100.00,WSW,256,7.0,14.0,59,0.00,,,0.00,0.000000,,2013-01-04 01:33:00,
2013-01-03 20:42:00,26.0,14.0,-100.00,WSW,256,7.0,14.0,59,0.00,,,0.00,0.000000,,2013-01-04 01:42:00,
2013-01-03 20:53:00,26.0,14.0,-100.00,WSW,256,7.0,14.0,59,0.00,,,0.00,0.000000,,2013-01-04 01:53:00,
2013-01-03 21:02:00,26.0,14.0,-100.00,WSW,256,7.0,14.0,59,0.00,,,0.00,0.000000,,2013-01-04 02:02:00,
2013-01-03 21:10:00,26.0,14.0,-100.00,WSW,252,8.0,15.0,60,0.00,,,0.00,0.000000,,2013-01-04 02:10:00,
2013-01-03 21:33:00,26.0,14.0,-100.00,WSW,252,8.0,15.0,60,0.00,,,0.00,0.000000,,2013-01-04 02:33:00,
2013-01-03 21:42:00,26.0,14.0,-100.00,WSW,252,8.0,15.0,60,0.00,,,0.00,0.000000,,2013-01-04 02:42:00,
2013-01-03 21:53:00,26.0,14.0,-100.00,WSW,252,8.0,15.0,60,0.00,,,0.00,0.000000,,2013-01-04 02:53:00,
2013-01-03 22:03:00,26.0,14.0,-100.00,WSW,252,8.0,15.0,60,0.00,,,0.00,0.000000,,2013-01-04 03:03:00,
2013-01-03 22:10:00,28.0,17.0,-100.00,WSW,254,9.0,17.0,63,0.00,,,0.00,0.000000,,2013-01-04 03:10:00,
2013-01-03 22:33:00,28.0,17.0,-100.00,WSW,254,9.0,17.0,63,0.00,,,0.00,0.000000,,2013-01-04 03:33:00,
2013-01-03 22:43:00,28.0,17.0,-100.00,WSW,254,9.0,17.0,63,0.00,,,0.00,0.000000,,2013-01-04 03:43:00,
2013-01-03 22:53:00,28.0,17.0,-100.00,WSW,254,9.0,17.0,63,0.00,,,0.00,0.000000,,2013-01-04 03:53:00,
2013-01-03 23:02:00,28.0,17.0,-100.00,WSW,254,9.0,17.0,63,0.00,,,0.00,0.000000,,2013-01-04 04:02:00,
2013-01-03 23:10:00,28.0,17.0,-100.00,WSW,249,7.0,16.0,62,0.00,,,0.00,0.000000,,2013-01-04 04:10:00,
2013-01-03 23:32:00,28.0,17.0,-100.00,WSW,249,7.0,16.0,62,0.00,,,0.00,0.000000,,2013-01-04 04:32:00,
2013-01-03 23:42:00,28.0,17.0,-100.00,WSW,249,7.0,16.0,62,0.00,,,0.00,0.000000,,2013-01-04 04:42:00,
2013-01-03 23:53:00,28.0,17.0,-100.00,WSW,249,7.0,16.0,62,0.00,,,0.00,0.000000,,2013-01-04 04:53:00,